Home   Weather   Inverness   Past weeks

Flag for USA Past Weather in Inverness, Florida, USA — Yesterday and Last 2 Weeks

72 °F


Feels Like: 65 °F
Forecast: 53 / 72 °F
Wind: N/A

Location: The Villages

Current Time: Oct 21, 2016 at 9:52:49 PM

Latest Report: Oct 21, 2016 at 9:15 PM

Visibility: 10 mi

Pressure: 29.76 "Hg

Humidity: 100%

Dew Point: 72 °F

Location of InvernessLocation

Past Weather in Inverness — Graph


Inverness Temperature Yesterday

Maximum temperature yesterday: 86 °F (at 4:35 PM)
Minimum temperature yesterday: 66 °F (at 4:15 AM)
Average temperature yesterday: 75 °F

High & Low Weather Summary for the Past Weeks

High88 °F (Oct 8, 2:15 PM)100% (Oct 6, 8:15 PM)30.13 "Hg (Oct 6, 8:15 PM)
Low64 °F (Oct 10, 12:15 AM)58% (Oct 19, 3:15 PM)29.33 "Hg (Oct 7, 1:55 PM)
Average75 °F91%29.91 "Hg
* Reported Oct 6 8:15 PM — Oct 21 8:15 PM, Inverness, Weather by CustomWeather, © 2016

Note: Actual official high and low records may vary slightly from our data, if they occured in-between our weather recording intervals... More about our weather records


Inverness Weather History for the Previous 24 Hours

Scroll right to see more
Time TempWeatherWind HumidityBarometerVisibility
8:15 PM
Fri, Oct 21
73 °FMild.No wind100%29.74 "Hg10 mi
7:55 PM75 °FMild.N/A100%29.73 "Hg10 mi
7:35 PM75 °FMild.7 mph100%29.72 "Hg10 mi
7:15 PM77 °FWarm.N/A94%29.71 "Hg10 mi
6:55 PM77 °FWarm.N/A94%29.71 "Hg10 mi
6:35 PM81 °FWarm.12 mph84%29.70 "HgN/A
6:15 PM82 °FWarm.N/A79%29.69 "Hg10 mi
5:55 PM82 °FWarm.6 mph79%29.68 "Hg10 mi
5:35 PM84 °FWarm.12 mph74%29.67 "Hg10 mi
5:15 PM86 °FWarm.8 mph70%29.67 "Hg10 mi
4:55 PM86 °FWarm.N/A66%29.67 "Hg10 mi
4:35 PM86 °FWarm.N/A66%29.67 "Hg10 mi
4:15 PM88 °FWarm.13 mph66%29.67 "Hg10 mi
3:55 PM86 °FWarm.N/A70%29.67 "Hg10 mi
3:35 PM86 °FWarm.N/A66%29.68 "Hg10 mi
3:15 PM86 °FWarm.N/A70%29.68 "Hg10 mi
2:55 PM86 °FWarm.N/A70%29.68 "Hg10 mi
2:35 PM84 °FWarm.N/A74%29.69 "Hg10 mi
2:15 PM84 °FWarm.N/A74%29.70 "Hg10 mi
1:55 PM88 °FWarm.12 mph70%29.70 "Hg10 mi
1:35 PM86 °FWarm.N/A75%29.71 "Hg10 mi
1:15 PM84 °FWarm.10 mph74%29.72 "Hg10 mi
12:55 PM84 °FWarm.N/A79%29.73 "Hg10 mi
12:35 PM84 °FWarm.N/A79%29.73 "Hg10 mi
12:15 PM82 °FWarm.N/A84%29.75 "Hg10 mi
11:55 AM82 °FWarm.N/A84%29.75 "Hg10 mi
11:35 AM81 °FWarm.N/A84%29.76 "Hg10 mi
11:15 AM79 °FWarm.N/A94%29.76 "Hg10 mi
10:55 AM79 °FWarm.N/A94%29.77 "Hg10 mi
10:15 AM75 °FMild.N/A100%29.78 "Hg10 mi
9:55 AM73 °FMild.N/A100%29.78 "HgN/A
9:15 AM70 °FMild.No wind100%29.78 "Hg10 mi
8:55 AM70 °FMild.5 mph100%29.78 "Hg10 mi
8:35 AM68 °FFog.N/A100%29.78 "Hg3 mi
8:15 AM68 °FFog.N/A100%29.77 "Hg0 mi
7:55 AM68 °FFog.N/A100%29.77 "Hg0 mi
7:35 AM68 °FFog.No wind100%29.77 "Hg0 mi
7:15 AM68 °FFog.N/A100%29.76 "Hg0 mi
6:55 AM68 °FFog.N/A100%29.76 "Hg0 mi
6:35 AM68 °FFog.N/A100%29.76 "Hg0 mi
6:15 AM68 °FFog.N/A100%29.76 "Hg0 mi
5:55 AM68 °FFog.No wind100%29.76 "Hg0 mi
5:35 AM68 °FFog.No wind100%29.76 "Hg0 mi
5:15 AM68 °FFog.No wind100%29.76 "Hg0 mi
4:55 AM68 °FFog.No wind100%29.76 "Hg0 mi
4:15 AM68 °FFog.No wind100%29.77 "Hg0 mi
3:55 AM70 °FFog.No wind100%29.77 "Hg0 mi
3:35 AM70 °FFog.No wind100%29.77 "Hg1 mi
3:15 AM70 °FMild.3 mph100%29.78 "Hg7 mi
2:55 AM68 °FMild.No wind100%29.78 "Hg10 mi
2:35 AM68 °FMild.No wind100%29.79 "Hg10 mi
2:15 AM68 °FMild.No wind100%29.79 "Hg10 mi
1:55 AM68 °FMild.No wind100%29.80 "Hg10 mi
1:35 AM70 °FMild.No wind100%29.80 "Hg10 mi
1:15 AM70 °FMild.No wind100%29.81 "HgN/A
12:55 AM70 °FMild.No wind100%29.81 "Hg10 mi
12:35 AM70 °FMild.No wind100%29.81 "Hg10 mi
12:15 AM70 °FMild.No wind100%29.81 "Hg10 mi
11:55 PM
Thu, Oct 20
70 °FMild.No wind100%29.82 "Hg10 mi
11:35 PM72 °FMild.No wind100%29.82 "Hg10 mi
11:15 PM72 °FMild.No wind100%29.82 "Hg10 mi
10:55 PM72 °FMild.No wind100%29.82 "Hg10 mi
10:15 PM72 °FMild.No wind94%29.82 "Hg10 mi
9:55 PM73 °FMild.No wind89%29.83 "Hg10 mi
9:35 PM73 °FMild.No wind89%29.83 "Hg10 mi
9:15 PM73 °FMild.N/A89%29.83 "Hg10 mi
Weather by CustomWeather, © 2016

See weather overviewHow to use our weather pages